User: anonymous   Login
Location: Unspecified
(0.0000°N, 0.0000°E)
Time: 13:49:20
(UTC+00:00)
Language:

Tiangong 1 - Orbit

View from above orbital plane
View from above orbital plane
View from above satellite
View from above satellite

Ground track
Ground track

The orbit data is extracted from the following two-line orbital elements,

1 37820U 11053A   16237.14366382  .00014202  00000-0  14385-3 0  9995
2 37820  42.7618 200.1941 0013866 157.1703 325.3189 15.64977997281225
Epoch (UTC): 24 August 2016 03:26:52
Eccentricity: 0.0013866
inclination: 42.7618°
perigee height: 364 km
apogee height: 382 km
right ascension of ascending node: 200.1941°
argument of perigee: 157.1703°
revolutions per day: 15.64977997
mean anomaly at epoch: 325.3189°
orbit number at epoch: 28122

The dashed part of the orbit path shows where the satellite is in the earth's shadow,  

DLR